Theta_e
330 330 331 331 332 331 329 328 327 325 326 325 324 323 322 321 319 318 318 318 318 319 320 317 316 316 318 319 318 315 315 314 309 308 306 307 303 305 313 311 310 310 308 307 306 299 298 296 298 303 304 303 303 304 308 303 303 304 303 305 304 304 302
331 331 331 332 330 330 327 325 324 324 323 323 322 321 320 320 321 318 318 318 318 318 320 318 317 317 316 314 313 312 311 312 314 311 309 307 307 307 306 306 304 305 305 306 306 305 302 299 300 299 299 304 304 305 305 305 303 303 306 304 305 307 308
331 330 330 329 328 327 324 323 322 322 322 321 320 319 319 320 320 320 319 319 317 319 318 315 314 314 314 314 313 312 311 310 310 310 309 307 307 306 307 306 305 305 303 303 302 302 303 301 299 299 299 300 299 302 305 304 304 304 304 304 305 304 300
330 329 328 326 326 326 323 321 321 321 320 320 319 319 319 320 320 319 315 314 316 319 316 313 312 313 312 312 312 311 310 309 308 308 308 307 306 306 305 305 304 304 302 301 300 301 300 298 298 299 300 303 302 302 304 305 306 304 303 304 304 301 299
329 328 327 325 325 324 322 321 321 320 318 318 317 316 317 319 320 316 317 315 314 313 313 313 313 312 312 311 310 310 310 310 310 309 306 306 305 305 305 304 303 304 303 302 303 302 301 300 299 298 298 299 301 303 305 304 304 303 299 297 298 298 300
329 328 327 326 326 324 322 322 321 318 317 316 316 315 316 318 317 315 313 311 310 312 312 312 311 311 311 311 310 309 309 308 308 307 306 305 305 305 303 303 303 303 303 303 303 301 301 301 298 295 297 300 298 299 300 302 301 301 297 296 296 298 299
328 328 327 326 326 326 324 322 322 319 317 316 316 316 318 317 317 317 314 312 311 311 311 310 310 310 309 309 309 308 308 308 308 307 306 306 305 304 304 303 303 302 301 303 302 301 300 299 297 296 297 296 299 297 298 297 294 294 295 297 296 298 299
329 328 328 328 327 326 325 323 321 319 318 317 317 316 317 316 316 315 313 311 311 310 310 310 311 309 309 309 309 309 309 308 307 306 305 305 305 303 303 303 303 302 302 302 301 302 302 301 299 298 296 294 293 294 297 297 294 295 295 297 297 299 300
329 329 328 328 328 327 325 323 321 320 319 317 316 315 316 316 314 313 312 310 310 310 309 309 309 308 308 308 307 308 308 310 306 305 305 304 303 302 302 302 302 301 303 302 303 302 301 302 301 299 297 295 293 291 293 294 294 295 297 297 296 298 300
329 328 327 327 327 326 325 323 322 320 318 317 316 317 315 314 313 311 310 310 309 309 309 309 308 308 307 307 306 306 306 307 307 305 304 304 303 301 300 301 300 300 300 302 302 303 303 301 301 299 297 296 296 292 291 290 292 292 295 298 297 297 300
329 329 327 326 326 326 325 323 321 319 317 317 318 317 314 313 313 314 310 309 309 309 308 308 307 307 306 306 307 306 306 306 305 305 305 304 303 302 302 301 301 301 301 300 300 301 300 300 299 300 298 297 296 294 293 291 290 294 295 297 299 298 300
330 329 328 327 327 326 324 322 320 319 317 317 317 314 312 312 311 310 310 309 309 308 308 307 308 307 307 305 305 305 305 305 304 303 303 303 303 303 302 302 301 301 301 301 300 300 300 299 299 298 299 298 298 295 294 293 290 292 298 296 297 300 300
331 330 328 328 327 326 324 322 319 317 317 316 314 313 312 311 310 309 309 309 308 308 308 308 307 307 306 305 305 305 305 303 303 303 303 304 305 302 301 300 299 298 300 300 301 303 300 301 300 297 298 299 297 297 296 294 292 293 296 298 298 300 301
330 330 329 328 326 324 323 321 318 317 316 314 313 312 312 311 310 310 309 309 307 307 307 307 307 306 305 304 304 304 304 303 303 302 303 302 303 302 301 299 299 300 301 300 300 300 301 300 301 301 300 298 297 297 295 294 293 294 295 297 299 300 301
330 329 328 326 324 323 321 319 318 317 315 314 313 312 311 311 310 309 308 307 307 307 307 306 306 305 304 304 304 306 304 303 302 301 301 300 300 303 300 299 299 299 300 299 298 298 299 299 296 296 297 298 296 298 298 296 295 294 293 295 296 299 298
329 327 326 324 324 322 320 319 318 316 315 314 313 312 311 310 309 308 307 307 307 307 306 306 305 305 304 304 304 304 304 302 301 301 300 300 300 301 300 300 299 301 302 298 299 298 299 299 299 296 297 297 297 297 298 298 296 294 293 294 296 296 296
327 326 324 324 322 322 321 319 317 316 315 314 313 312 311 310 309 307 307 307 306 306 306 306 305 305 304 303 303 303 302 302 302 301 301 300 301 300 300 299 299 300 301 298 298 298 298 298 298 296 295 296 297 297 298 298 298 296 293 294 294 295 298
326 325 324 323 322 321 320 318 317 316 315 314 313 312 311 310 308 307 307 306 306 305 306 306 305 304 303 303 303 303 302 302 302 301 301 301 306 301 301 299 300 300 299 298 297 297 297 297 298 297 295 296 296 297 298 297 297 297 294 293 294 295 296
325 324 324 323 321 320 319 317 316 316 315 313 312 312 310 309 308 306 306 306 305 306 305 305 304 303 303 302 302 302 303 302 302 301 301 302 303 302 301 300 301 300 299 297 296 296 296 296 298 295 295 295 295 295 295 296 295 295 294 293 292 293 294
324 324 323 322 321 319 318 317 316 315 314 313 311 310 310 308 308 307 306 306 306 306 305 305 304 303 303 302 302 302 302 302 301 301 301 302 302 302 301 300 298 298 297 296 295 294 294 295 298 295 296 295 295 294 294 294 294 293 292 292 292 293 293
325 324 323 321 320 318 317 316 315 315 314 312 311 310 309 308 307 307 306 305 306 306 305 304 303 303 303 302 302 302 302 302 302 301 302 302 302 300 299 296 295 294 294 294 293 292 293 293 295 294 293 294 294 293 292 293 292 291 291 291 291 291 292
324 323 321 320 319 317 316 315 314 314 313 312 312 310 309 309 307 306 306 305 305 305 305 305 305 303 303 302 302 302 303 303 302 302 302 302 301 298 295 294 294 295 301 301 302 301 300 299 295 292 292 292 294 292 291 290 292 290 290 290 290 292 291
323 322 321 319 318 317 316 315 314 312 312 312 311 310 309 309 308 306 306 305 305 305 305 306 308 306 306 303 302 303 303 302 302 302 302 302 299 296 295 295 301 304 301 299 299 297 295 299 300 297 292 292 291 291 290 290 289 290 291 289 289 289 290
322 321 320 319 318 316 315 314 313 312 311 311 310 309 309 308 307 306 306 305 304 305 305 307 303 298 299 302 304 302 302 302 302 302 302 301 297 295 294 294 295 299 301 300 296 296 295 293 293 294 295 298 299 294 291 290 289 291 291 290 290 289 289
321 320 319 318 317 316 315 313 312 311 310 310 310 309 307 307 307 305 306 304 304 304 304 305 297 297 298 299 304 303 302 302 303 302 302 301 297 294 293 294 295 298 295 295 295 294 296 294 292 292 292 293 292 293 297 294 293 290 290 289 289 289 289
320 319 319 318 316 315 314 312 311 310 310 310 309 308 307 307 306 306 305 304 303 304 302 298 296 297 298 298 299 303 303 303 302 302 302 301 297 295 294 294 296 299 300 301 302 294 293 293 296 295 295 295 295 293 290 290 293 294 291 290 289 289 290
319 318 318 317 315 315 314 312 311 310 310 309 308 307 307 306 306 306 305 304 303 302 300 297 296 296 297 297 298 301 304 303 303 303 303 302 298 296 294 294 296 299 300 303 301 295 294 293 293 293 293 292 291 294 296 294 292 292 294 291 290 290 293
319 318 317 316 315 314 313 312 311 310 309 309 307 307 306 305 306 306 305 304 302 301 301 296 295 295 295 296 297 301 305 306 304 303 303 303 300 297 296 297 298 300 299 299 301 300 298 297 297 297 295 294 294 293 293 294 294 293 293 293 292 292 293
318 317 316 315 315 314 313 311 310 309 308 307 307 307 306 306 305 305 305 304 302 300 299 294 295 295 295 295 298 304 303 304 303 304 303 303 304 301 300 302 301 300 297 297 301 296 296 295 294 295 296 296 296 297 297 300 297 296 296 295 294 295 296
317 316 315 314 314 313 312 311 310 309 307 307 307 307 306 305 306 306 305 303 301 299 298 295 294 295 295 296 299 302 303 303 304 303 303 305 306 305 304 303 303 302 300 296 293 290 292 295 295 296 296 296 298 298 298 300 297 295 294 294 294 294 293
316 315 315 314 313 312 311 310 309 308 307 306 307 306 305 305 305 306 305 303 302 299 297 296 295 295 295 296 300 302 302 303 304 304 304 305 304 304 305 310 309 304 300 294 291 290 291 295 294 296 297 297 297 298 295 295 298 298 296 295 295 294 294
316 315 314 313 313 312 312 310 309 309 309 308 307 306 306 305 304 305 305 304 305 300 298 298 295 295 295 295 300 302 302 302 302 303 303 303 303 303 305 309 309 304 300 294 289 290 291 295 295 295 295 296 296 296 293 293 293 293 294 294 295 296 296
315 315 314 314 313 313 312 309 309 309 309 308 307 306 305 304 303 303 303 303 302 299 298 298 296 294 294 295 298 302 302 301 301 301 302 303 303 303 304 303 301 295 294 290 289 289 290 293 294 294 294 294 295 294 294 292 294 294 293 293 293 294 295
315 315 315 315 314 312 311 310 309 309 308 307 305 304 304 304 304 302 302 301 300 299 300 298 296 293 294 295 296 299 301 300 300 300 301 302 302 302 302 300 297 295 291 289 289 289 290 290 293 293 292 291 295 294 291 290 292 296 292 293 293 294 294
316 316 315 314 311 311 310 310 310 309 307 306 304 302 302 302 302 302 302 301 300 300 303 301 298 293 293 294 295 296 300 299 299 297 301 303 302 301 301 300 297 293 290 290 289 289 290 289 290 294 292 291 291 290 291 293 293 292 292 292 291 292 293
315 315 313 312 312 310 310 309 308 306 305 304 302 302 301 301 301 302 302 302 302 301 300 300 297 296 293 293 293 294 296 297 295 299 299 299 298 295 295 298 299 295 290 290 289 290 290 289 291 291 290 290 290 289 291 292 291 291 290 290 291 291 292
314 313 311 311 310 309 308 307 306 305 304 303 302 302 301 301 301 300 300 301 301 301 301 299 296 295 295 292 292 293 293 294 294 298 299 298 297 295 292 291 295 293 290 290 289 289 289 290 290 289 289 289 289 290 291 291 290 291 290 290 290 291 292
Wind_Speed
9 9 8 6 5 5 6 6 5 5 5 5 6 5 5 6 6 6 6 6 5 5 5 5 6 4 6 5 5 4 4 3 6 7 5 4 6 2 0 2 3 4 5 2 4 6 5 4 3 1 1 1 1 0 0 0 2 2 3 3 3 4 5
7 7 6 5 6 6 7 5 5 5 5 5 5 5 5 5 4 5 5 5 5 4 5 5 4 5 5 6 6 6 5 5 5 4 5 3 4 2 2 3 4 4 4 3 2 2 2 3 1 3 2 1 1 2 4 2 3 3 4 4 3 3 3
8 7 7 7 7 7 7 5 5 5 5 5 4 4 4 4 4 3 3 4 5 5 5 6 6 6 5 5 5 5 5 7 5 7 6 5 5 4 4 3 4 3 4 5 5 4 3 3 4 3 4 5 4 4 3 4 4 4 4 5 3 3 1
11 10 9 8 7 7 7 6 6 5 5 5 5 3 4 4 5 5 6 6 6 6 6 6 6 6 5 5 5 5 6 7 6 7 6 5 6 6 6 7 6 6 4 2 1 3 3 2 4 4 1 3 5 2 4 5 4 3 3 4 1 1 3
12 10 11 11 9 9 8 8 6 6 5 5 5 5 5 5 6 5 5 5 6 6 6 6 6 6 6 5 5 5 5 5 6 7 6 7 6 7 6 6 6 5 5 5 3 4 5 2 3 2 1 2 1 2 2 1 3 3 4 2 4 4 2
10 10 10 10 9 9 8 8 8 7 6 6 6 6 5 5 6 6 5 6 6 6 7 6 5 5 5 5 6 5 6 6 6 6 7 5 6 7 7 5 6 6 6 3 4 4 4 6 5 4 2 1 0 2 0 1 1 1 1 5 4 3 4
10 10 9 10 9 8 8 8 8 8 7 6 6 6 6 6 5 5 5 5 5 5 6 6 6 5 6 6 5 6 6 5 6 7 7 6 7 6 6 7 6 6 5 5 5 6 6 5 5 3 1 2 1 1 1 1 3 3 4 4 4 4 7
10 9 9 8 9 9 7 7 7 7 7 6 6 5 6 7 7 6 6 5 5 6 6 6 6 6 6 6 6 6 5 5 7 7 7 7 8 7 6 6 6 6 6 6 6 6 5 5 4 3 4 2 2 4 4 2 3 6 1 3 3 6 7
9 8 8 8 7 8 8 8 8 8 7 7 6 6 5 7 7 7 6 6 5 6 7 7 7 6 6 7 6 6 6 4 7 8 6 7 8 7 6 5 7 5 5 6 5 5 5 4 6 5 6 5 5 1 3 2 2 1 4 4 3 4 5
11 11 10 11 10 9 8 8 8 7 8 7 7 6 6 6 7 7 7 6 5 6 8 7 7 6 6 6 7 6 7 5 7 6 6 7 6 6 6 6 6 6 5 4 4 5 5 4 5 6 6 5 3 5 2 3 2 3 4 3 2 3 4
10 10 10 11 10 9 8 8 7 8 9 8 7 6 7 7 7 7 7 6 5 6 7 7 7 7 7 6 6 6 6 6 7 6 5 6 6 6 6 6 5 6 4 5 4 4 4 3 4 5 5 5 6 6 2 2 2 0 3 4 1 3 5
10 9 9 10 9 9 10 9 9 9 9 8 8 8 8 7 7 7 7 6 6 7 7 7 7 7 6 7 6 7 6 6 7 6 5 6 5 6 6 6 4 4 4 4 3 3 3 4 3 4 4 5 5 4 3 2 1 3 2 3 3 4 4
10 10 11 10 10 9 10 10 10 10 9 8 8 8 8 8 8 7 6 7 7 7 7 6 7 7 7 6 6 7 6 7 7 6 5 4 4 5 6 5 4 4 3 3 2 1 0 1 3 4 4 4 4 4 4 2 1 4 3 1 4 5 6
11 10 11 10 10 10 9 9 9 9 9 8 9 8 8 9 8 8 7 7 7 7 7 7 7 7 7 7 6 6 7 7 6 5 5 5 4 5 6 5 4 3 3 3 1 1 2 1 1 3 4 5 4 3 3 2 1 4 5 2 3 3 6
11 10 11 11 11 10 9 10 10 10 10 9 9 9 9 8 8 8 7 7 7 7 7 8 7 7 8 7 6 6 7 7 6 5 5 5 4 4 5 5 4 4 4 4 4 4 3 5 3 4 3 3 2 1 2 2 0 1 4 4 5 6 5
11 11 12 10 10 10 10 11 10 10 10 9 8 9 9 9 9 9 8 8 8 7 7 8 7 7 7 7 7 6 6 6 6 6 6 5 5 5 6 5 4 2 2 4 3 4 4 4 3 5 4 3 3 1 1 2 1 1 4 4 3 4 3
12 12 12 10 11 10 11 11 10 10 10 9 9 8 9 10 9 9 8 8 8 7 7 7 6 6 7 7 7 7 7 6 6 5 6 5 5 5 5 5 4 3 3 3 2 3 3 4 3 4 4 4 4 3 3 4 1 1 2 3 4 3 3
13 12 12 10 11 11 11 10 9 11 10 9 9 9 8 8 8 8 8 8 7 6 6 6 6 6 6 5 6 6 7 6 5 5 6 6 6 5 5 5 4 4 3 5 4 3 4 4 3 4 4 4 3 3 3 4 4 2 2 4 4 3 3
13 13 12 11 12 11 11 10 9 9 10 10 9 8 9 7 7 7 6 7 6 6 6 5 6 6 6 5 6 6 6 6 5 5 5 5 5 5 5 5 4 4 5 6 4 3 3 4 4 4 4 4 3 3 4 4 3 4 4 3 3 5 4
12 12 11 11 10 10 10 10 10 10 10 9 9 9 8 8 7 8 8 8 7 8 7 6 7 7 6 6 7 7 7 6 5 5 5 5 5 4 5 5 5 5 6 5 5 3 3 4 4 4 4 4 3 4 4 3 4 4 4 5 4 4 4
12 11 10 10 11 10 10 10 10 10 9 9 9 10 9 9 8 8 8 8 7 7 7 7 7 7 6 7 7 7 7 6 6 5 5 5 4 5 5 6 6 5 6 5 5 3 4 3 3 4 3 3 4 4 4 4 5 5 5 5 3 4 4
11 11 11 11 11 11 10 10 10 10 9 9 8 9 8 8 8 8 8 8 8 7 8 7 7 7 7 7 7 8 7 7 7 6 5 5 5 6 5 5 5 5 5 8 8 6 5 4 4 4 3 3 3 3 3 4 4 5 5 5 6 5 6
12 12 12 12 11 11 10 9 10 9 9 10 9 9 8 8 9 9 9 9 8 8 7 6 9 13 10 8 7 7 7 7 7 6 6 6 6 6 5 4 4 10 10 10 8 7 6 6 5 4 3 3 2 3 3 3 4 3 3 5 4 4 6
12 12 12 12 11 11 11 9 9 9 9 9 10 9 8 9 8 7 8 9 9 8 7 7 14 13 13 13 8 7 7 7 6 6 6 7 7 6 4 4 4 6 7 7 4 5 5 6 6 5 3 2 2 1 2 2 2 1 1 2 2 3 4
12 12 12 12 12 11 9 9 9 9 8 9 8 8 8 8 7 7 7 8 8 7 6 10 15 13 13 13 10 8 7 6 6 6 6 7 6 6 5 5 3 3 3 4 3 3 2 2 3 3 3 3 3 1 2 1 0 0 0 2 3 4 3
12 12 12 12 11 10 10 9 9 9 9 8 7 8 7 8 7 7 8 8 7 6 4 10 13 14 14 14 14 10 7 6 7 6 6 7 7 6 6 5 4 3 2 7 4 2 2 3 4 4 3 3 5 6 7 6 6 4 2 1 3 5 4
13 12 12 12 11 10 10 10 9 8 8 8 8 8 7 9 7 6 7 8 6 6 6 10 14 14 13 13 14 10 6 7 6 6 7 7 7 7 7 7 6 4 3 3 3 4 3 3 3 1 2 3 4 6 7 10 10 9 6 6 5 5 7
12 12 12 12 11 11 10 9 9 8 9 10 9 9 8 8 7 7 7 8 8 7 8 14 15 14 13 12 10 6 4 5 6 5 6 6 8 8 8 8 8 7 5 4 3 4 4 3 3 3 3 3 4 6 6 6 6 5 5 6 7 8 10
12 11 11 11 12 11 10 10 10 8 8 7 6 7 6 7 7 7 8 9 9 9 8 13 15 15 14 12 11 6 5 3 4 6 5 5 6 7 7 7 6 6 8 7 7 8 6 5 3 1 1 2 3 4 6 8 9 8 7 7 7 8 8
12 12 11 11 11 11 11 9 8 8 9 8 8 8 7 7 7 8 9 10 11 10 10 12 17 18 17 15 11 7 6 6 4 3 5 3 5 5 5 6 7 7 7 6 9 9 7 4 1 1 1 3 4 3 2 3 3 8 10 11 13 13 12
12 11 11 12 11 9 8 7 8 8 10 9 8 8 7 7 7 9 11 11 11 11 9 11 16 14 14 14 10 8 7 7 8 8 8 8 8 6 3 7 6 6 8 7 10 10 9 5 3 2 0 1 3 2 2 4 3 2 8 8 8 9 11
13 12 12 11 10 10 9 8 7 7 8 8 7 7 7 8 7 6 8 10 10 12 9 9 14 15 14 13 9 6 7 6 7 6 7 7 8 7 8 10 12 8 8 9 12 11 10 7 5 3 2 0 1 1 1 3 4 6 7 9 9 9 10
9 11 12 10 9 9 7 7 8 8 7 7 7 7 6 7 8 6 7 9 9 9 10 8 9 13 13 13 12 8 6 7 7 6 5 8 8 6 7 5 7 10 12 13 12 12 10 9 5 3 2 1 0 2 2 4 3 3 4 4 7 6 7
13 11 11 11 9 8 7 8 9 9 9 7 7 6 7 7 7 6 5 6 8 7 9 10 9 13 13 13 13 12 6 5 4 4 4 7 8 8 7 7 6 9 13 14 13 11 10 8 6 4 3 3 2 0 2 3 4 5 4 5 6 7 7
11 10 10 9 9 8 7 8 9 9 8 8 8 8 7 7 7 7 6 6 6 7 7 10 8 11 13 13 13 13 8 6 6 5 5 7 7 7 8 8 6 8 13 15 14 13 11 9 7 3 4 6 4 2 2 2 3 4 5 5 6 7 7
10 7 7 9 11 11 9 9 8 8 9 9 10 9 9 8 8 7 7 6 6 6 7 8 12 11 11 12 12 11 10 7 7 4 5 5 5 4 1 1 4 11 14 15 14 14 12 12 8 5 7 6 5 3 1 2 2 4 4 5 6 6 7
10 9 11 10 9 10 9 8 8 7 9 10 10 10 8 8 8 8 8 7 7 7 7 7 9 13 11 13 12 13 12 10 10 4 4 5 4 4 1 1 3 11 14 15 15 15 14 12 8 9 8 7 6 3 1 2 3 3 3 5 6 7 7
Wind_Direction
156 155 159 157 146 141 127 124 115 98 93 99 102 93 100 103 106 107 108 107 103 101 100 105 112 106 86 71 74 89 75 96 125 133 151 157 139 200 177 122 89 90 123 104 126 167 157 163 251 307 338 235 86 311 308 97 186 219 236 272 262 282 293
141 141 140 134 132 130 122 118 110 110 96 90 96 101 97 103 106 116 119 116 101 102 100 96 88 90 99 99 87 75 83 77 89 115 109 120 106 170 125 68 84 83 79 76 86 77 131 135 215 185 243 315 9 306 279 249 254 245 246 249 254 270 322
137 132 131 133 133 130 122 120 116 112 109 100 99 103 104 108 114 107 102 110 122 110 102 102 97 91 90 94 102 106 99 91 89 96 108 113 102 82 86 112 81 44 42 28 22 24 37 80 149 197 209 185 221 274 258 266 262 253 263 266 268 319 360
148 142 139 138 137 133 131 132 127 121 114 118 112 116 124 120 105 101 110 117 117 115 108 104 106 106 101 103 105 98 95 103 105 103 95 92 92 82 77 86 91 96 124 116 81 59 99 75 52 14 344 161 194 234 262 246 265 286 263 260 223 97 93
152 153 152 151 152 146 144 143 136 123 125 127 129 131 134 128 112 116 115 114 115 116 117 118 115 111 111 107 98 98 95 93 95 94 96 90 85 85 81 84 93 97 79 93 127 99 87 108 115 133 111 318 359 204 282 328 305 316 343 65 98 91 65
154 154 153 152 154 149 153 150 150 149 148 142 154 148 158 137 128 122 120 120 120 123 126 120 118 112 105 96 99 95 96 94 98 100 96 97 95 94 100 85 86 73 69 67 81 93 85 94 90 72 326 105 93 298 296 88 256 353 16 56 75 59 44
157 157 158 155 158 155 158 160 157 156 156 161 159 160 156 135 124 129 126 122 120 120 120 118 114 111 107 108 104 101 100 105 96 93 96 95 89 91 88 80 69 76 69 62 69 65 64 62 53 60 348 6 106 313 51 59 11 60 336 30 53 34 29
158 161 161 160 158 158 161 153 149 151 155 162 150 149 140 124 127 124 123 118 117 116 112 109 105 103 108 104 104 107 98 95 94 93 87 90 88 85 81 87 81 65 67 62 64 60 69 81 95 83 90 67 359 16 44 14 35 54 346 335 41 26 18
161 159 156 158 159 160 159 154 152 154 151 146 143 137 131 126 128 127 124 123 122 115 108 110 114 114 113 111 108 107 104 102 98 91 93 90 91 93 93 86 76 70 65 61 60 59 62 82 81 85 88 90 110 39 347 17 353 344 18 31 329 19 356
163 163 161 159 158 155 154 152 153 149 144 146 145 139 131 130 128 127 127 126 124 118 113 117 119 119 117 116 120 116 112 107 96 97 95 96 99 98 94 95 100 88 71 64 48 44 44 53 80 95 100 105 125 113 51 12 315 27 334 17 24 309 339
161 158 153 154 151 150 152 151 142 144 154 153 144 139 134 132 130 129 130 131 126 120 124 124 124 126 123 119 120 116 120 111 103 95 94 96 98 103 99 90 91 94 92 77 72 57 57 66 79 97 109 105 103 101 137 88 286 272 357 326 356 312 325
158 154 152 153 155 155 157 155 149 149 146 144 136 138 137 131 132 136 137 137 131 131 130 131 131 127 126 122 119 119 113 105 104 104 104 103 106 99 99 95 91 94 104 99 82 63 52 66 64 81 94 96 89 104 98 111 48 289 59 343 302 305 302
160 156 158 158 160 160 159 154 147 145 146 137 137 140 137 137 141 143 145 140 137 137 137 138 134 130 124 125 128 120 118 110 109 113 112 107 113 109 104 103 106 116 102 99 97 84 122 83 101 82 89 98 96 99 97 97 120 276 296 262 288 297 302
162 159 160 159 158 157 151 146 144 141 134 138 141 142 142 144 146 147 146 144 145 146 141 141 138 131 130 133 130 124 121 118 120 125 119 113 104 107 107 107 100 88 104 81 20 45 58 341 32 53 74 92 85 91 97 94 35 306 307 282 280 289 304
161 157 158 156 155 152 144 144 142 140 141 146 147 148 147 148 148 149 148 149 150 148 144 143 143 137 139 139 133 129 128 127 126 128 121 119 117 116 112 98 80 75 81 96 83 59 59 53 80 74 29 99 105 85 136 99 201 229 283 320 327 311 305
157 155 155 154 153 147 141 141 143 142 144 149 151 152 153 153 154 154 154 155 153 151 149 148 149 144 145 143 140 137 135 132 133 132 125 130 125 116 107 109 113 100 76 78 70 57 49 41 45 71 35 11 53 60 52 82 85 293 279 283 278 306 290
154 155 156 154 150 148 142 141 143 144 148 154 155 157 156 157 156 159 158 157 157 153 152 151 150 146 145 144 142 137 135 135 135 134 133 128 126 123 126 122 144 136 106 97 73 73 54 54 47 67 61 36 59 31 28 20 349 233 254 312 306 298 295
156 158 156 153 150 148 144 140 144 148 152 158 161 157 159 157 156 158 157 156 155 153 155 152 143 140 138 138 134 132 135 135 137 138 136 139 139 135 134 137 155 147 115 95 79 66 54 48 51 69 54 35 36 25 15 13 327 313 332 318 298 293 321
158 159 157 154 149 148 144 143 148 155 158 162 160 160 156 157 154 153 151 154 152 153 152 143 141 142 142 136 128 132 133 135 140 142 144 144 142 145 143 150 156 134 115 120 117 77 53 38 49 74 57 33 29 13 23 353 353 356 8 334 336 325 337
159 158 157 151 146 146 147 151 157 162 166 162 157 155 155 150 154 154 158 155 154 154 152 145 146 146 145 139 137 136 139 138 140 145 143 142 139 132 125 108 90 93 95 98 94 88 78 53 49 49 57 58 22 37 23 11 11 7 14 6 344 345 330
158 158 150 146 145 146 151 160 164 165 162 159 155 157 159 158 158 155 156 155 154 153 150 149 150 152 149 147 142 143 145 141 142 138 131 130 122 111 105 99 103 105 106 107 115 113 101 98 73 63 23 50 40 40 30 20 21 17 12 9 4 332 335
155 154 149 145 146 152 161 166 166 165 162 157 155 157 155 153 153 154 153 155 155 156 155 159 160 159 152 149 144 146 143 143 141 135 130 125 112 107 102 108 110 121 117 111 109 111 111 113 105 90 36 54 44 50 30 35 29 21 8 16 352 351 346
155 155 152 150 152 160 165 168 167 165 164 159 155 154 151 155 157 158 156 156 156 159 162 162 164 160 154 150 148 143 138 142 140 138 138 127 111 112 118 120 131 123 118 118 117 115 112 105 112 119 132 96 90 63 51 48 31 20 19 7 349 345 339
155 158 156 151 157 165 169 166 166 165 163 160 154 153 151 158 161 160 157 159 160 163 165 164 159 154 150 146 141 138 140 143 141 142 142 133 127 125 117 117 117 123 122 124 129 144 144 147 139 142 122 134 125 121 89 58 3 41 23 354 306 333 307
155 157 156 158 163 167 164 163 166 164 158 156 153 150 154 163 160 159 157 159 161 162 162 156 154 148 147 144 139 142 143 146 147 144 147 132 131 129 134 128 133 132 133 139 145 139 157 163 178 186 199 195 220 237 183 165 165 319 287 308 304 281 266
155 158 162 161 162 164 164 166 166 159 160 158 149 153 160 159 162 158 156 156 153 145 126 154 146 147 150 148 147 146 148 147 144 148 149 138 140 141 139 141 152 161 166 161 148 162 180 212 230 229 247 277 283 250 240 228 215 211 183 217 243 282 253
159 162 162 161 162 165 168 169 166 158 152 155 153 154 154 163 161 152 154 146 133 124 129 151 142 144 144 144 149 145 145 145 149 153 160 147 149 150 153 154 164 176 195 197 170 189 202 220 234 251 264 270 265 272 259 247 239 232 216 218 231 250 271
160 163 163 162 163 168 169 163 161 160 159 161 160 161 160 162 164 147 143 136 129 138 154 159 144 134 122 113 111 99 125 147 151 157 163 157 157 163 164 166 170 172 167 179 208 187 184 196 184 209 230 243 245 250 252 248 233 224 216 218 223 237 261
158 161 162 163 166 170 171 168 162 158 153 155 150 144 145 150 156 145 140 139 138 148 158 161 142 133 122 131 129 117 99 110 157 159 165 169 163 169 168 165 164 167 169 175 173 167 170 166 157 153 199 254 273 262 250 244 226 206 214 217 222 234 249
160 160 162 165 171 173 171 167 160 152 151 157 155 157 158 159 152 143 143 145 149 159 164 167 143 143 145 160 141 131 119 102 85 131 162 136 122 138 163 165 165 181 173 173 175 171 161 141 123 130 21 340 310 310 326 346 239 228 243 251 251 253 265
158 161 164 171 173 174 169 163 159 155 155 157 160 163 155 146 152 149 150 155 160 154 155 176 156 147 155 165 153 144 140 135 145 157 146 142 122 123 160 167 179 162 174 172 169 155 159 147 157 147 99 27 328 343 349 337 332 264 242 265 301 308 296
159 163 169 173 173 173 171 163 153 152 153 153 154 149 149 150 154 148 145 148 148 147 159 172 165 165 170 169 165 151 146 152 155 170 160 146 146 157 189 198 192 186 165 167 166 166 163 163 169 174 153 134 289 339 306 332 332 340 349 348 331 336 331
153 168 170 168 169 171 158 147 149 146 146 146 151 155 147 145 146 144 142 146 155 152 154 166 181 169 173 176 177 160 155 163 182 181 171 161 165 195 184 201 185 160 158 158 166 166 170 170 172 167 136 147 32 280 331 343 315 340 327 324 305 305 300
169 177 172 169 164 159 157 152 149 147 148 146 144 143 138 140 139 128 123 136 145 160 160 165 185 178 178 184 184 169 166 168 170 172 174 180 180 180 185 194 206 183 162 165 167 166 163 174 169 162 161 175 191 149 23 335 319 339 322 316 314 308 305
174 172 166 153 145 150 157 158 157 152 146 142 135 129 129 127 129 131 133 142 148 157 168 169 172 190 189 191 192 183 168 179 167 159 178 189 184 171 182 190 189 203 177 169 169 169 173 169 170 161 185 192 220 319 311 287 290 313 327 322 318 312 306
158 156 151 152 156 162 161 158 152 145 141 135 137 140 140 142 143 143 136 138 152 161 168 182 182 185 198 198 199 201 188 168 170 145 146 139 139 127 43 222 213 197 186 176 172 174 176 175 168 192 194 204 229 245 255 282 294 318 324 314 307 299 299
159 154 152 154 155 151 152 147 144 144 147 148 150 148 150 145 145 150 157 158 169 175 177 174 193 188 188 197 201 201 201 177 174 159 134 128 133 137 146 208 227 199 196 182 178 180 184 175 188 191 197 214 226 222 249 282 289 292 302 299 294 288 282